Temperature
23 24 26 26 26 26 24 23 22 22 22 22 22 22 23 23 23 23 22 22 23 22 22 22 22 22 22 21 21 21 20 20 20 19 19 19 18 18 18 18 18 18 17 17
23 25 25 25 25 25 25 24 23 23 22 22 22 23 22 22 22 22 22 22 22 22 22 22 22 22 21 21 21 20 20 20 20 19 19 19 18 18 18 18 17 17 17 17
21 23 24 23 24 24 24 24 23 22 22 21 21 21 22 22 22 22 22 22 22 22 22 22 21 21 21 21 21 20 20 20 19 19 19 19 18 18 18 17 17 17 17 17
19 22 22 22 23 24 23 23 23 22 21 21 21 22 22 23 22 22 22 22 22 22 22 21 21 21 21 21 20 20 20 19 19 19 19 18 18 18 17 17 17 17 16 16
18 20 21 22 23 23 22 22 22 21 21 21 21 21 21 22 22 22 22 22 22 22 21 21 21 21 20 20 20 20 19 19 19 18 18 18 18 17 17 17 17 17 16 16
18 20 20 21 22 23 22 21 21 21 20 21 21 19 19 21 22 22 22 22 21 21 21 21 20 20 20 20 19 19 19 19 18 18 18 18 18 17 17 17 17 16 16 16
18 19 19 20 22 23 21 20 21 21 21 21 20 20 21 21 21 21 21 21 21 21 20 20 20 19 19 19 19 19 19 18 18 18 17 17 17 17 17 16 16 16 16 16
17 18 19 20 21 20 19 20 21 21 21 21 21 21 21 21 21 20 20 20 20 20 20 19 19 19 19 19 18 18 18 18 18 17 17 17 17 17 17 16 16 16 16 16
16 17 18 20 20 21 21 20 20 20 20 20 20 20 20 20 20 20 20 19 19 19 19 19 19 18 18 18 18 18 18 17 17 17 17 16 16 16 16 16 16 16 16 16
16 17 18 19 20 20 21 20 20 20 20 20 19 19 19 19 19 19 18 19 18 19 18 18 18 18 18 18 17 17 17 17 17 16 16 16 16 16 16 16 16 16 15 15
16 16 17 19 19 20 20 20 19 19 20 19 19 18 18 18 18 18 18 18 18 18 17 17 17 17 17 17 17 17 17 17 16 16 16 16 16 16 16 15 15 15 15 15
15 16 16 17 19 19 19 19 19 19 18 18 18 18 18 17 17 17 17 17 17 17 17 17 17 17 17 17 16 16 16 16 16 16 16 15 15 15 15 15 15 15 15 15
18 19 18 18 19 19 19 19 18 18 18 18 18 17 17 17 17 17 16 16 16 16 16 16 16 16 16 16 16 15 16 15 15 15 15 15 15 15 15 15 15 14 14 14
19 19 18 18 18 18 18 18 18 18 17 17 17 17 17 16 16 16 16 16 16 16 16 15 15 15 15 15 15 15 15 15 15 15 15 15 15 15 14 14 14 14 14 14
18 18 17 17 17 17 17 17 17 17 17 16 16 16 16 16 15 15 15 15 15 15 15 15 15 15 15 15 15 15 15 15 14 14 14 14 14 14 14 14 14 14 14 14
17 17 17 17 17 17 17 17 16 16 16 16 16 15 15 15 15 15 15 14 14 14 14 14 14 14 14 14 14 14 14 14 14 14 14 14 14 14 14 13 13 13 13 13
16 16 16 16 16 16 16 16 16 16 16 15 15 15 15 15 14 14 14 14 14 14 14 14 14 14 14 14 14 14 14 14 14 14 14 14 13 13 13 13 13 13 13 13
16 16 16 16 16 16 16 16 15 15 15 15 15 14 14 14 14 14 14 14 14 14 14 14 14 14 14 14 14 13 13 13 13 13 13 13 13 13 13 13 13 13 13 13
16 16 15 15 15 15 15 15 15 15 15 14 14 14 14 14 13 13 13 13 13 13 13 13 13 13 13 13 13 13 13 13 13 13 13 13 13 12 12 12 12 12 12 12
15 15 15 15 15 15 15 15 14 14 14 14 14 13 13 13 13 13 13 13 13 13 13 13 13 13 13 13 13 13 13 13 13 13 12 12 12 12 12 12 12 12 12 11
14 14 14 14 15 14 14 14 14 14 14 13 13 13 13 13 13 13 13 12 12 12 12 12 12 12 12 12 12 12 12 12 12 12 12 12 12 12 12 12 11 11 11 11
14 14 14 14 14 14 14 14 14 14 13 13 13 13 13 12 12 12 12 12 12 12 12 12 12 12 12 12 12 12 12 12 12 12 12 12 12 11 11 11 11 11 10 10
14 14 14 14 14 14 14 14 13 13 13 13 13 13 12 12 12 12 12 12 12 12 12 12 12 12 12 12 12 12 11 11 11 11 11 11 11 11 11 11 10 10 10 10
13 13 13 13 13 13 13 13 13 13 13 13 13 13 12 12 12 12 12 12 12 12 12 11 11 11 11 11 11 11 11 11 11 11 11 11 11 10 10 10 10 9 9 9
13 13 13 13 13 13 13 13 13 12 12 12 12 12 12 12 12 12 12 12 11 11 11 11 11 11 11 11 11 11 11 11 10 10 10 10 10 10 9 9 9 9 9 9
12 12 13 13 13 13 13 13 12 12 12 12 12 12 12 12 12 11 11 11 11 11 11 11 11 11 11 11 11 10 10 10 10 10 10 9 9 9 9 9 8 8 8 8
12 12 12 12 12 12 13 12 12 12 12 12 12 11 11 11 11 11 11 11 11 11 11 11 11 11 11 10 10 10 10 10 10 9 9 9 9 8 8 8 8 8 7 7
Wind_Speed
5 4 1 1 3 2 2 6 7 8 9 9 8 7 7 7 7 8 6 6 7 7 7 7 7 7 7 8 7 8 8 8 8 7 6 6 5 5 4 5 5 5 4 3
1 1 2 2 3 1 1 2 5 5 5 6 6 6 6 6 7 8 7 7 6 7 7 8 8 8 7 7 7 7 8 8 7 7 7 6 6 5 5 4 4 4 4 4
2 3 3 3 3 0 0 1 5 6 6 5 6 8 8 8 8 9 9 8 7 7 8 8 8 8 8 7 6 7 8 7 7 7 7 7 7 6 5 5 4 4 4 4
2 3 3 7 2 3 4 1 1 4 5 8 9 8 6 7 9 8 8 8 7 6 6 5 5 6 6 6 6 6 6 6 6 6 7 6 6 6 5 4 5 4 4 5
3 3 4 5 3 1 3 2 1 4 6 6 6 6 2 2 6 8 8 8 6 6 6 6 6 6 6 5 5 6 6 6 6 6 7 6 6 6 5 4 4 4 4 5
4 4 5 6 4 1 6 1 4 3 6 6 5 3 3 3 5 6 6 6 6 6 6 6 5 6 6 5 5 5 5 5 5 5 6 6 6 5 4 4 4 4 4 5
4 4 4 5 5 3 4 5 4 3 5 4 3 5 5 4 5 6 6 6 7 7 6 5 5 6 5 4 4 4 4 4 4 4 5 5 4 4 4 3 3 3 4 4
3 3 5 5 2 3 5 3 2 3 5 5 3 5 6 6 6 6 6 6 6 6 5 4 5 6 5 4 4 4 4 4 4 4 4 4 4 3 4 4 3 3 3 3
5 5 4 1 3 3 5 4 3 4 4 6 5 5 6 6 6 5 6 6 5 6 5 4 4 5 5 3 3 4 4 3 3 2 2 3 4 4 3 3 3 3 3 4
2 0 1 2 3 3 6 6 4 5 5 6 5 5 6 6 5 5 5 6 5 6 6 4 3 4 4 3 3 4 3 3 3 2 2 1 2 3 3 3 4 4 3 4
1 2 2 3 2 3 5 6 7 5 5 6 6 4 5 5 5 5 4 4 5 5 5 4 4 3 2 3 4 4 3 2 2 2 2 2 2 2 3 4 5 5 5 4
5 6 4 3 1 3 6 6 6 6 5 5 5 5 4 4 3 4 4 4 5 5 4 4 3 3 2 3 4 4 3 2 2 2 2 2 2 1 1 2 2 4 5 5
6 5 5 3 2 3 5 5 6 6 6 5 4 5 5 4 4 4 4 5 5 4 4 3 3 2 2 2 3 4 3 2 2 2 2 2 2 2 1 3 2 2 4 5
4 5 4 3 2 3 5 5 6 6 5 6 6 6 5 5 4 5 3 3 4 4 3 2 3 2 1 2 2 2 2 2 2 2 2 2 2 2 2 2 2 3 4 5
3 5 6 5 3 3 4 6 7 5 4 4 5 6 6 6 5 4 3 4 4 4 3 2 2 1 0 1 2 1 1 1 2 2 2 1 1 1 1 2 2 3 3 3
4 5 5 5 5 5 6 6 6 4 4 4 4 4 5 6 5 5 4 5 4 3 2 2 2 0 1 2 1 0 1 1 1 1 1 1 1 1 1 2 2 2 2 3
5 4 3 4 4 4 4 5 5 5 4 5 5 5 6 6 5 4 4 3 3 2 2 2 1 0 1 2 1 0 0 1 0 0 0 1 1 2 2 2 2 2 3 3
6 7 6 6 6 5 3 4 4 5 5 6 6 6 6 6 5 3 3 3 4 4 2 2 2 2 2 2 1 0 1 1 0 1 1 1 1 1 1 1 2 2 3 2
5 6 5 5 5 6 5 4 4 5 5 6 7 6 5 4 4 3 3 4 4 3 1 1 2 2 2 1 1 0 0 0 0 0 1 1 1 1 1 1 1 2 1 1
4 5 5 4 4 5 5 5 5 5 5 6 6 5 4 3 3 3 3 3 2 2 1 1 1 1 1 1 1 1 1 1 0 0 0 1 1 1 1 1 1 1 1 1
3 4 4 4 4 4 5 6 6 6 5 6 7 6 5 4 3 3 4 2 1 0 1 1 1 0 0 1 2 1 1 1 0 0 0 1 0 0 1 1 1 1 1 1
2 4 4 4 4 4 4 5 6 6 6 5 5 5 5 4 3 3 3 3 2 1 1 0 0 0 1 2 2 2 1 1 1 0 0 0 0 0 0 1 1 1 1 1
2 3 3 3 3 3 3 4 5 6 6 6 6 6 6 5 4 5 2 2 2 2 1 0 0 1 2 2 1 1 1 1 1 1 0 0 0 1 1 1 1 1 1 1
3 3 3 3 3 3 4 4 5 5 5 5 5 6 5 4 2 2 3 3 3 3 1 1 1 1 2 1 1 1 1 1 1 1 1 1 1 1 1 1 1 1 1 1
3 3 3 4 4 4 4 5 6 5 5 4 4 4 4 4 4 2 3 3 4 3 1 1 2 2 2 2 2 2 1 1 1 2 2 2 2 2 2 2 2 1 1 1
3 2 2 3 4 4 4 5 5 4 5 4 3 3 3 3 4 3 2 3 4 3 2 1 1 2 2 2 2 2 2 2 3 3 2 2 2 2 2 2 2 2 1 1
3 2 2 2 2 3 4 5 5 5 5 6 5 3 3 3 3 3 3 3 3 2 2 2 2 2 2 2 2 2 2 2 2 2 2 3 3 2 2 3 2 2 2 2
Wind_Direction
204 210 186 311 298 298 210 192 186 202 187 198 194 179 167 152 143 141 144 149 155 158 161 156 156 159 165 169 166 168 169 173 180 182 181 177 172 168 167 168 173 169 165 165
308 347 39 355 315 328 275 198 167 165 210 204 172 151 143 147 147 151 158 162 155 156 158 159 159 159 161 169 169 168 175 182 180 176 174 177 177 171 168 173 175 164 173 179
274 307 37 312 270 152 1 183 162 182 211 159 140 158 162 160 152 160 167 168 162 162 168 166 164 160 162 168 164 169 178 177 174 174 176 179 175 170 181 185 176 178 196 194
148 71 218 239 261 102 94 9 143 156 154 155 160 159 158 166 161 167 161 163 165 157 151 152 148 142 151 154 158 165 172 171 172 173 174 173 170 175 183 181 181 191 202 202
136 170 250 297 316 86 119 343 351 136 139 128 119 93 76 187 159 160 157 156 156 151 141 134 137 141 133 144 152 155 163 167 171 170 171 171 177 184 187 182 188 197 199 202
140 156 212 246 283 341 101 15 308 135 142 142 121 126 219 185 138 137 138 140 138 131 122 125 135 134 130 146 150 160 167 169 168 166 165 171 181 186 185 184 198 203 212 213
154 183 236 260 293 48 116 224 256 159 144 134 156 185 182 147 129 128 128 128 130 127 129 135 137 129 139 151 170 173 156 146 154 164 169 173 177 179 180 185 192 207 223 229
145 164 239 283 37 129 200 216 167 131 125 109 117 130 132 129 123 123 124 128 129 131 132 129 134 135 142 170 176 150 144 153 168 179 188 182 176 187 181 177 192 218 236 251
176 200 238 294 139 151 129 109 105 108 112 110 108 115 120 119 117 120 124 128 127 129 123 117 124 137 149 175 157 147 149 165 180 189 196 190 183 191 186 182 194 212 218 234
84 329 347 24 65 86 106 103 94 112 115 108 103 103 104 108 108 112 117 121 123 123 120 117 119 130 158 160 143 140 155 174 172 175 194 215 209 199 197 203 207 212 219 231
145 227 32 16 48 77 75 91 94 83 92 104 105 105 113 115 124 129 127 127 129 133 134 132 122 125 127 136 138 144 162 175 178 193 201 214 225 219 212 218 206 204 219 218
202 200 173 222 245 93 92 99 113 106 85 89 114 122 113 120 123 119 117 117 120 119 116 120 127 124 112 118 134 140 152 170 183 194 205 202 222 284 276 225 238 221 221 215
197 185 166 156 96 91 104 106 107 113 115 108 101 108 105 109 108 103 107 116 128 131 126 123 127 126 134 133 136 144 157 175 186 190 203 204 203 205 274 324 327 294 260 242
149 123 107 113 117 105 107 100 96 97 103 110 105 104 106 105 109 112 122 135 131 124 117 118 128 137 169 139 130 145 159 181 196 211 220 221 219 213 207 218 276 290 279 264
125 134 148 146 139 124 115 107 99 96 94 93 102 109 109 109 114 115 114 113 107 105 102 101 113 112 120 117 115 149 178 206 217 218 222 222 217 210 209 220 236 263 278 286
134 126 137 141 141 135 126 125 125 127 118 110 105 109 117 119 114 108 107 111 110 109 99 106 128 220 157 126 117 129 221 235 219 215 216 206 197 195 202 220 236 245 255 257
146 158 154 150 156 146 143 150 155 152 139 131 133 127 114 105 101 103 108 111 122 133 122 125 142 64 80 98 115 159 214 259 245 162 184 205 214 218 220 229 248 257 264 255
175 179 176 168 161 148 143 142 145 143 143 144 132 122 120 119 122 134 131 105 89 75 71 95 95 68 52 50 57 135 180 204 176 189 211 253 249 239 242 251 265 274 287 310
164 161 160 159 156 151 154 156 156 152 144 140 134 134 137 137 137 128 117 104 97 83 358 18 62 65 40 20 28 46 92 149 204 246 236 257 271 281 264 264 282 296 292 287
148 143 142 152 151 152 157 156 148 147 149 145 139 134 132 138 129 119 118 124 164 192 211 79 67 58 1 345 29 68 98 154 174 270 293 277 268 288 294 284 289 327 334 306
146 138 145 155 158 156 161 159 154 155 156 151 150 154 160 160 146 138 129 127 262 175 115 94 83 68 21 36 56 64 62 67 68 49 349 320 302 289 310 319 329 332 327 322
143 141 156 161 163 174 179 167 163 161 157 158 157 153 149 150 143 132 147 179 196 163 130 119 163 133 97 85 65 60 53 39 26 22 339 328 152 16 354 340 339 342 348 353
156 148 145 149 163 177 171 163 161 157 157 159 158 157 157 163 160 152 173 213 173 149 130 169 188 114 103 80 69 63 52 49 50 42 10 244 141 98 50 3 4 0 8 23
144 149 156 161 146 135 140 148 142 139 137 139 145 150 153 152 163 182 173 167 161 148 138 202 167 133 120 110 105 91 77 71 69 52 49 65 75 75 70 56 49 46 60 56
131 144 149 145 144 153 157 143 126 122 120 119 122 127 137 144 151 162 150 153 155 138 144 196 164 138 116 118 107 97 89 90 87 76 63 69 79 73 59 60 76 83 72 61
108 125 157 167 163 158 150 138 136 139 136 130 124 125 125 124 130 138 148 164 157 144 151 145 110 101 110 115 102 93 87 74 71 76 80 80 76 74 74 75 69 62 59 61
90 85 95 99 116 136 139 139 142 148 149 144 138 145 144 139 133 142 150 148 146 148 145 123 113 115 115 117 113 104 100 94 92 95 94 88 84 84 76 67 60 55 47 43
Height
1473 1469 1467 1468 1469 1468 1475 1481 1490 1487 1485 1479 1475 1475 1476 1478 1480 1482 1485 1487 1488 1490 1492 1494 1497 1498 1500 1503 1505 1507 1509 1510 1512 1514 1515 1516 1517 1519 1520 1521 1521 1521 1522 1522
1472 1466 1466 1469 1467 1467 1468 1470 1475 1477 1479 1471 1471 1473 1475 1477 1478 1480 1483 1485 1487 1489 1491 1493 1495 1496 1498 1500 1502 1504 1506 1508 1510 1511 1512 1514 1515 1516 1517 1518 1519 1519 1520 1520
1484 1472 1471 1481 1470 1468 1469 1467 1470 1477 1474 1469 1471 1472 1473 1475 1476 1478 1481 1483 1485 1486 1489 1491 1493 1495 1496 1498 1501 1503 1504 1505 1507 1508 1509 1510 1512 1513 1515 1516 1517 1517 1518 1519
1486 1481 1493 1480 1462 1461 1465 1467 1465 1465 1465 1466 1467 1469 1472 1473 1474 1477 1479 1482 1484 1485 1488 1490 1492 1493 1496 1498 1499 1500 1502 1503 1504 1505 1506 1508 1509 1510 1511 1513 1514 1515 1515 1516
1490 1492 1486 1472 1464 1463 1467 1471 1465 1464 1465 1466 1468 1471 1474 1474 1474 1476 1478 1480 1482 1484 1486 1489 1491 1493 1495 1496 1497 1498 1499 1500 1502 1503 1504 1505 1506 1507 1509 1510 1511 1512 1512 1513
1486 1489 1493 1477 1462 1458 1462 1475 1466 1464 1465 1466 1468 1475 1475 1474 1474 1476 1478 1480 1481 1484 1486 1488 1490 1492 1493 1494 1495 1496 1498 1499 1500 1501 1502 1503 1504 1505 1506 1507 1508 1509 1509 1509
1482 1486 1480 1465 1459 1458 1477 1477 1465 1464 1464 1465 1467 1469 1470 1472 1473 1474 1477 1479 1481 1483 1484 1486 1488 1490 1492 1493 1494 1495 1497 1498 1498 1499 1500 1501 1501 1502 1503 1504 1505 1505 1506 1506
1481 1486 1483 1460 1459 1464 1467 1462 1463 1463 1463 1465 1466 1467 1468 1470 1471 1473 1475 1478 1480 1481 1483 1485 1487 1489 1490 1492 1493 1494 1495 1496 1497 1497 1498 1499 1499 1500 1500 1501 1502 1502 1502 1503
1473 1474 1464 1459 1458 1460 1459 1461 1462 1462 1463 1465 1465 1466 1467 1469 1471 1472 1474 1476 1478 1480 1483 1485 1486 1488 1489 1490 1491 1492 1493 1494 1495 1496 1496 1496 1496 1497 1497 1498 1499 1499 1499 1499
1467 1465 1462 1461 1460 1460 1459 1459 1461 1462 1463 1464 1465 1467 1467 1469 1471 1472 1474 1476 1478 1480 1481 1483 1485 1486 1487 1488 1490 1490 1491 1492 1492 1493 1493 1494 1494 1495 1495 1495 1495 1495 1495 1495
1466 1464 1462 1462 1462 1461 1461 1461 1462 1463 1463 1464 1465 1467 1468 1469 1471 1472 1474 1476 1478 1479 1479 1481 1483 1484 1485 1486 1487 1488 1489 1489 1490 1490 1491 1491 1492 1492 1492 1492 1493 1493 1492 1493
1465 1461 1462 1462 1462 1462 1462 1463 1463 1463 1464 1465 1466 1467 1467 1469 1470 1471 1473 1474 1476 1478 1478 1480 1481 1482 1484 1484 1485 1486 1486 1487 1487 1488 1488 1488 1489 1489 1489 1490 1490 1490 1490 1490
1456 1458 1459 1460 1461 1462 1463 1464 1464 1464 1465 1465 1466 1467 1467 1468 1470 1471 1472 1473 1475 1477 1478 1479 1480 1481 1482 1483 1483 1484 1484 1485 1485 1486 1486 1486 1486 1486 1486 1486 1487 1487 1487 1486
1454 1455 1457 1459 1461 1462 1463 1463 1463 1464 1465 1465 1465 1466 1467 1467 1468 1470 1471 1473 1474 1475 1476 1477 1478 1479 1480 1481 1482 1483 1483 1483 1484 1483 1483 1483 1483 1483 1483 1483 1483 1483 1484 1483
1454 1455 1456 1459 1460 1462 1462 1462 1463 1464 1465 1465 1465 1466 1466 1467 1468 1470 1471 1472 1473 1474 1475 1476 1476 1477 1479 1480 1480 1481 1481 1482 1482 1482 1482 1481 1481 1481 1481 1481 1481 1480 1480 1480
1454 1455 1456 1458 1459 1460 1461 1461 1462 1463 1464 1465 1465 1466 1467 1467 1468 1470 1471 1472 1472 1473 1474 1474 1475 1476 1477 1478 1479 1479 1480 1480 1480 1480 1480 1480 1479 1479 1479 1479 1478 1477 1477 1477
1453 1454 1455 1456 1457 1458 1459 1460 1461 1462 1463 1464 1465 1466 1466 1467 1468 1469 1471 1472 1472 1472 1473 1473 1473 1475 1476 1476 1477 1477 1478 1478 1478 1478 1478 1478 1477 1477 1476 1476 1475 1475 1474 1474
1451 1452 1453 1454 1455 1456 1458 1460 1461 1461 1462 1463 1464 1465 1466 1467 1468 1469 1470 1471 1471 1471 1472 1473 1473 1474 1474 1475 1476 1476 1476 1476 1476 1476 1476 1476 1475 1475 1474 1473 1473 1472 1471 1471
1449 1450 1451 1452 1453 1454 1456 1458 1459 1460 1462 1463 1463 1464 1465 1466 1467 1468 1469 1470 1470 1470 1471 1472 1472 1473 1473 1474 1474 1475 1475 1475 1475 1475 1474 1474 1473 1472 1472 1471 1470 1469 1468 1467
1446 1447 1449 1451 1452 1453 1455 1456 1457 1459 1460 1462 1463 1463 1464 1465 1466 1467 1468 1469 1470 1470 1471 1471 1471 1472 1472 1472 1472 1473 1473 1473 1473 1473 1472 1472 1471 1470 1469 1468 1467 1466 1465 1464
1444 1445 1446 1447 1449 1450 1452 1454 1455 1457 1459 1460 1461 1462 1463 1465 1466 1467 1468 1468 1469 1470 1470 1470 1470 1470 1470 1471 1471 1471 1471 1472 1471 1471 1470 1470 1469 1468 1467 1466 1465 1464 1463 1462
1442 1443 1444 1445 1446 1448 1450 1452 1453 1455 1456 1458 1459 1461 1462 1463 1465 1466 1467 1467 1468 1469 1469 1469 1469 1469 1469 1469 1470 1470 1470 1469 1469 1469 1468 1468 1467 1466 1465 1464 1463 1462 1461 1459
1440 1441 1442 1443 1444 1446 1448 1449 1451 1453 1454 1455 1457 1458 1460 1461 1463 1464 1465 1466 1467 1468 1468 1468 1468 1468 1468 1468 1468 1468 1468 1467 1467 1467 1466 1466 1465 1464 1463 1462 1461 1459 1458 1457
1439 1440 1441 1443 1444 1445 1447 1448 1450 1451 1452 1454 1455 1457 1459 1460 1462 1463 1464 1465 1466 1466 1466 1467 1467 1467 1466 1466 1466 1466 1466 1466 1466 1465 1464 1463 1463 1462 1461 1460 1458 1457 1456 1454
1438 1439 1440 1442 1443 1445 1446 1447 1449 1450 1452 1453 1455 1456 1458 1459 1461 1462 1463 1464 1465 1465 1466 1466 1466 1465 1465 1465 1465 1465 1465 1465 1464 1464 1463 1462 1461 1460 1459 1458 1456 1455 1453 1452
1438 1439 1440 1442 1443 1444 1445 1446 1448 1449 1451 1452 1454 1456 1457 1459 1460 1461 1462 1463 1463 1464 1465 1465 1465 1465 1464 1464 1464 1464 1464 1464 1463 1463 1462 1462 1460 1459 1458 1456 1454 1453 1451 1449
1439 1440 1441 1442 1443 1444 1445 1447 1448 1450 1451 1452 1454 1457 1458 1460 1461 1462 1463 1463 1464 1465 1465 1464 1464 1464 1464 1464 1464 1464 1464 1463 1462 1462 1461 1460 1459 1458 1456 1454 1453 1451 1449 1447